EW7944 Weather Reports


Display with metric or nautical units.
time (UTC)temp
F
wind
direction
speed
MPH
gust
MPH
rain 1hr
in
rain 24hr
in
rain mn
in
humidity
%
barometer
mb
20190219050517 28 0.0 0.0 0.00 0.00 0.00 100 984.1
20190219045517 28 0.0 0.0 0.00 0.00 0.00 100 984.2
20190219044517 27 0.0 0.0 0.00 0.00 0.00 100 984.2
20190219043517 27 0.0 0.0 0.00 0.00 0.00 100 984.4
20190219042517 28 0.0 0.0 0.00 0.00 0.00 100 984.8
20190219041517 28 0.0 0.0 0.00 0.00 0.00 100 984.8
20190219040518 29 0.0 0.0 0.00 0.00 0.00 100 984.9
20190219035517 29 0.0 0.0 0.00 0.00 0.00 100 985.1
20190219034550 29 0.0 2.0 0.00 0.00 0.00 100 985.1
20190219033517 30 0.0 0.0 0.00 0.00 0.00 100 985.3
20190219032517 30 0.0 0.0 0.00 0.00 0.00 100 985.5
20190219031517 29 0.0 0.0 0.00 0.00 0.00 100 985.5
20190219030517 30 0.0 0.0 0.00 0.00 0.00 100 985.7
20190219025517 30 0.0 0.0 0.00 0.00 0.00 100 985.9
20190219024517 30 0.0 0.0 0.00 0.00 0.00 100 985.9
20190219023517 29 0.0 0.0 0.00 0.00 0.00 100 986.1
20190219022517 30 0.0 0.0 0.00 0.00 0.00 100 986.3
20190219021517 29 0.0 0.0 0.00 0.00 0.00 100 986.3
20190219020517 30 0.0 0.0 0.00 0.00 0.00 100 986.4
20190219015517 29 0.0 0.0 0.00 0.00 0.00 100 986.6
20190219014518 29 0.0 0.0 0.00 0.00 0.00 100 986.6
20190219013517 29 0.0 0.0 0.00 0.00 0.00 100 987.0
20190219012517 29 0.0 0.0 0.00 0.00 0.00 100 987.1
20190219011517 28 0.0 0.0 0.00 0.00 0.00 100 987.1
20190219010517 28 0.0 0.0 0.00 0.00 0.00 100 987.3
20190219005517 29 0.0 0.0 0.00 0.00 0.00 100 987.5
20190219004517 30 0.0 0.0 0.00 0.00 0.00 100 987.5
20190219003517 30 0.0 0.0 0.00 0.00 0.00 100 987.7
20190219002517 29 0.0 0.0 0.00 0.00 0.00 100 987.8
20190219001517 29 0.0 0.0 0.00 0.00 0.00 100 987.8
20190219000517 30 0.0 0.0 0.00 0.00 0.00 100 987.9
20190218235518 30 0.0 0.0 0.00 0.00 0.00 100 988.1
20190218234517 30 0.0 0.0 0.00 0.00 0.00 100 988.1
20190218233517 29 0.0 0.0 0.00 0.00 0.00 100 988.3
20190218232517 30 0.0 0.0 0.00 0.00 0.00 100 988.4
20190218231518 30 0.0 0.0 0.00 0.00 0.00 100 988.4
20190218230518 29 0.0 0.0 0.00 0.00 0.00 100 988.5
20190218225517 30 0.0 0.0 0.00 0.00 0.00 100 988.7
20190218224517 30 0.0 0.0 0.00 0.00 0.00 100 988.7
20190218223517 30 0.0 0.0 0.00 0.00 0.00 100 988.8
20190218222517 31 0.0 0.0 0.00 0.00 0.00 100 988.9
20190218221517 31 0.0 0.0 0.00 0.00 0.00 100 988.9
20190218220517 32 0.0 0.0 0.00 0.00 0.00 100 989.0
20190218215518 31 0.0 0.0 0.00 0.00 0.00 100 989.1
20190218214517 30 0.0 0.0 0.00 0.00 0.00 100 989.1
20190218213517 31 0.0 0.0 0.00 0.00 0.00 100 989.3
20190218212518 31 0.0 0.0 0.00 0.00 0.00 100 989.2
20190218211517 31 0.0 0.0 0.00 0.00 0.00 100 989.2
20190218210517 32 0.0 0.0 0.00 0.00 0.00 100 989.4
20190218205518 31 0.0 0.0 0.00 0.00 0.00 100 989.6
20190218204517 32 0.0 0.0 0.00 0.00 0.00 100 989.6
20190218203517 32 0.0 0.0 0.00 0.00 0.00 100 989.6
20190218202517 32 0.0 0.0 0.00 0.00 0.00 100 989.7
20190218201518 32 0.0 0.0 0.00 0.00 0.00 100 989.7
20190218200517 32 0.0 0.0 0.00 0.00 0.00 100 989.8
20190218195517 33 0.0 0.0 0.00 0.00 0.00 100 990.0
20190218194517 32 0.0 0.0 0.00 0.00 0.00 100 990.0
20190218193517 33 0.0 0.0 0.00 0.00 0.00 100 990.0
20190218192517 34 0.0 0.0 0.00 0.00 0.00 100 990.1
20190218191517 34 0.0 0.0 0.00 0.00 0.00 100 990.1
20190218190605 34 0.0 0.0 0.00 0.00 0.00 100 990.2
20190218185518 34 0.0 0.0 0.00 0.00 0.00 100 990.2
20190218184518 34 0.0 0.0 0.00 0.00 0.00 100 990.2
20190218183532 35 0.0 0.0 0.00 0.00 0.00 100 990.1
20190218182518 35 0.0 0.0 0.00 0.00 0.00 100 990.2
20190218181517 36 0.0 0.0 0.00 0.00 0.00 100 990.2
20190218180518 37 0.0 0.0 0.00 0.00 0.00 100 990.2
20190218175517 37 0.0 0.0 0.00 0.00 0.00 96 990.3
20190218174518 38 0.0 0.0 0.00 0.00 0.00 96 990.3
20190218173518 39 0.0 0.0 0.00 0.00 0.00 92 990.6
20190218172517 39 0.0 0.0 0.00 0.00 0.00 90 990.6
20190218171517 40 0.0 0.0 0.00 0.00 0.00 84 990.6
20190218170518 40 0.0 0.0 0.00 0.00 0.00 83 990.7
20190218165517 41 0.0 0.0 0.00 0.00 0.00 82 990.6
20190218164517 41 0.0 0.0 0.00 0.00 0.00 81 990.6
20190218163518 41 0.0 0.0 0.00 0.00 0.00 81 990.7
20190218162517 41 0.0 0.0 0.00 0.00 0.00 79 990.8
20190218161518 42 0.0 0.0 0.00 0.00 0.00 78 990.8
20190218160518 41 0.0 0.0 0.00 0.00 0.00 79 991.0
20190218155518 41 0.0 0.0 0.00 0.00 0.00 79 991.1
20190218154519 42 0.0 0.0 0.00 0.00 0.00 77 991.1
20190218153518 42 0.0 0.0 0.00 0.00 0.00 77 991.0
20190218152518 42 0.0 0.0 0.00 0.00 0.00 78 991.1
20190218151518 42 0.0 0.0 0.00 0.00 0.00 76 991.1
20190218150518 42 0.0 0.0 0.00 0.00 0.00 76 991.2
20190218145518 42 0.0 0.0 0.00 0.00 0.00 75 991.3
20190218144518 42 0.0 4.0 0.00 0.00 0.00 74 991.3
20190218143518 43 0.0 0.0 0.00 0.00 0.00 74 991.5
20190218142518 43 0.0 0.0 0.00 0.00 0.00 74 991.6
20190218141518 43 0.0 0.0 0.00 0.00 0.00 74 991.6
20190218140518 43 0.0 0.0 0.00 0.00 0.00 75 991.7
20190218135518 43 0.0 0.0 0.00 0.00 0.00 74 991.9
20190218134518 43 0.0 1.0 0.00 0.00 0.00 75 991.9
20190218133518 43 0.0 4.0 0.00 0.00 0.00 76 991.9
20190218132519 42 0.0 0.0 0.00 0.00 0.00 79 992.1
20190218131518 42 0.0 0.0 0.00 0.00 0.00 78 992.1
20190218130518 42 0.0 6.0 0.00 0.00 0.00 78 992.3
20190218125518 42 0.0 0.0 0.00 0.00 0.00 81 992.4
20190218124518 42 0.0 0.0 0.00 0.00 0.00 80 992.4
20190218123518 42 0.0 1.0 0.00 0.00 0.00 83 992.7
20190218122519 41 0.0 0.0 0.00 0.00 0.00 85 992.8
20190218121518 42 0.0 0.0 0.00 0.00 0.00 87 992.8
20190218120518 41 0.0 0.0 0.00 0.00 0.00 92 993.0
20190218115518 40 0.0 0.0 0.00 0.00 0.00 97 993.1
20190218114518 39 0.0 0.0 0.00 0.00 0.00 100 993.1
20190218113518 38 0.0 0.0 0.00 0.00 0.00 100 993.3
20190218112518 37 0.0 0.0 0.00 0.00 0.00 100 993.7
20190218111518 36 0.0 0.0 0.00 0.00 0.00 100 993.7
20190218110518 36 0.0 0.0 0.00 0.00 0.00 100 993.8
20190218105518 36 0.0 0.0 0.00 0.00 0.00 100 994.1
20190218104518 34 0.0 0.0 0.00 0.00 0.00 100 994.1
20190218103518 34 0.0 0.0 0.00 0.00 0.00 100 994.3
20190218102518 33 0.0 0.0 0.00 0.00 0.00 100 994.3
20190218101518 33 0.0 0.0 0.00 0.00 0.00 100 994.3
20190218100518 33 0.0 0.0 0.00 0.00 0.00 100 994.7
20190218095547 32 0.0 0.0 0.00 0.00 0.00 100 994.8
20190218094518 33 0.0 0.0 0.00 0.00 0.00 100 994.8
20190218093519 32 0.0 0.0 0.00 0.00 0.00 100 995.0
20190218092518 32 0.0 0.0 0.00 0.00 0.00 100 995.2
20190218091518 31 0.0 0.0 0.00 0.00 0.00 100 995.2
20190218090519 31 0.0 0.0 0.00 0.00 0.00 100 995.5
20190218085518 30 0.0 0.0 0.00 0.00 0.00 100 995.7
20190218084518 31 0.0 0.0 0.00 0.00 0.00 100 995.7
20190218083518 31 0.0 0.0 0.00 0.00 0.00 100 995.8
20190218082518 30 0.0 0.0 0.00 0.00 0.00 100 996.0
20190218081518 30 0.0 0.0 0.00 0.00 0.00 100 996.0
20190218080517 30 0.0 0.0 0.00 0.00 0.00 100 996.2
20190218075518 30 0.0 0.0 0.00 0.00 0.00 100 996.4
20190218074518 30 0.0 0.0 0.00 0.00 0.00 100 996.4
20190218073518 30 0.0 0.0 0.00 0.00 0.00 100 996.5
20190218072519 30 0.0 0.0 0.00 0.00 0.00 100 996.9
20190218071518 30 0.0 0.0 0.00 0.00 0.00 100 996.9
20190218070518 30 0.0 0.0 0.00 0.00 0.00 100 996.9
20190218065518 30 0.0 0.0 0.00 0.00 0.00 100 997.2
20190218064518 29 0.0 0.0 0.00 0.00 0.00 100 997.2
20190218063518 29 0.0 0.0 0.00 0.00 0.00 100 997.4
20190218062518 30 0.0 0.0 0.00 0.00 0.00 100 997.5
20190218061518 30 0.0 0.0 0.00 0.00 0.00 100 997.5
20190218060518 30 0.0 0.0 0.00 0.00 0.00 100 997.6
20190218055517 30 0.0 0.0 0.00 0.00 0.00 98 998.0
20190218054519 30 0.0 0.0 0.00 0.00 0.00 99 998.0
20190218053518 30 0.0 0.0 0.00 0.00 0.00 99 998.5
20190218052518 30 0.0 0.0 0.00 0.00 0.00 97 998.5
20190218051518 30 0.0 0.0 0.00 0.00 0.00 94 998.5